Location: Pasarilla del Rebollar
(40.6790°N, 5.0062°W)
Time: 10:53:09
(UTC+00:00)

USA 281 - Pass Details

Date: 22 April 2026
Orbit: 1079 x 1080 km, 106.0° (Epoch: 5 January)

Event Time Altitude Azimuth Distance (km) Brightness Sun altitude
Exits shadow 02:38:17 70° 221° (SW) 1,143 3.0 -28.1°
Maximum altitude 02:38:41 72° 248° (WSW) 1,132 3.0 -28.0°
Drops below altitude 10° 02:45:15 10° 333° (NNW) 2,927 5.7 -27.2°
Sets 02:47:47 0° 335° (NNW) 3,887 6.4 -26.9°
